Location: Unspecified
(0.0000°N, 0.0000°E)
Time: 07:30:32
(UTC+00:00)

Courier 1B Rocket - Pass Details

Date: 17 December 2018
Orbit: 920 x 1202 km, 28.2° (Epoch: 15 June)

Event Time Altitude Azimuth Distance (km) Brightness Sun altitude
Rises 02:14:42 0° 217° (SW) 3,694 - -49.0°
Reaches altitude 10° 02:18:12 10° 200° (SSW) 2,699 - -48.3°
Maximum altitude 02:22:47 20° 155° (SSE) 2,024 - -47.4°
Exits shadow 02:25:40 15° 122° (ESE) 2,286 7.4 -46.8°
Drops below altitude 10° 02:27:14 10° 109° (ESE) 2,617 7.8 -46.5°
Sets 02:30:32 0° 93° (E) 3,547 8.5 -45.8°
